Regional Weather Roundup
Issued by NWS

Home | Current Version | Previous Version | Text Only | Print | Product List | Glossary Off
Versions: 1 2 3 4 5 6 7 8 9 10 11 12 13 14 15 16 17 18 19 20 21 22 23 24 25 26 27

000
ASUS45 KTFX 250310
RWRMT
MONTANA REGIONAL WEATHER ROUNDUP
NATIONAL WEATHER SERVICE GREAT FALLS MT
900 PM MDT WED MAY 24 2017

NOTE: "FAIR" INDICATES FEW OR NO CLOUDS BELOW 12000 FEET WITH NO
SIGNIFICANT WEATHER AND/OR OBSTRUCTIONS TO VISIBILITY.

MTZ001>007-043-250400-
WEST OF THE DIVIDE

CITY           SKY/WX    TMP DP  RH WIND       PRES   REMARKS
KALISPELL      CLOUDY    51  33  50 N8        29.66R
MISSOULA       MOCLDY    52  27  38 W13       29.69R
BUTTE          CLEAR     48  15  26 NW20      29.66R
MULLAN PASS    CLOUDY    35  27  72 W10G18    29.73S WCI  27
ANACONDA         N/A     48  16  27 W10       29.67R
DEER LODGE       N/A     48  19  32 NW16G23   29.68R
EUREKA           N/A     48  36  61 E3        29.67R
HAMILTON         N/A     52  21  30 W10       29.72R
RONAN            N/A     53  26  35 SW6       29.76R
$$

MTZ008-052>055-250400-
SOUTHWEST MONTANA

CITY           SKY/WX    TMP DP  RH WIND       PRES   REMARKS
BOZEMAN        CLEAR     49  21  33 NW9       29.58R
DILLON         CLEAR     51  18  27 VRB3      29.60R
W YELLOWSTONE  CLEAR     50  14  23 VRB3      29.60R
ENNIS          CLEAR     52  12  20 NW12G18   29.65R
THREE FORKS      N/A     55  13  19 W10       29.63R
$$

MTZ009-010-012-014-046-048-049-054-250400-
EAST SLOPES AND CENTRAL MONTANA

CITY           SKY/WX    TMP DP  RH WIND       PRES   REMARKS
CUT BANK       CLOUDY    46  31  55 W30G43    29.48R
GREAT FALLS    CLEAR     51  22  31 W22G36    29.51R
MALMSTROM AFB  CLEAR     53  22  29 W26G37    29.52R
HELENA         MOCLDY    54  20  26 W24G37    29.59R
CHOTEAU          N/A     50  23  34 W26G39    29.52S
CONRAD           N/A     53  28  38 SW25      29.55S
$$

MTZ011-013-016-021-045-047-050-051-250400-
NORTH CENTRAL MONTANA

CITY           SKY/WX    TMP DP  RH WIND       PRES   REMARKS
HAVRE          CLEAR     54  26  34 W23G36    29.37R
LEWISTOWN      CLEAR     51  20  29 NW20G28   29.49R
N BAR RANCH      N/A     50  18  27 NW23G35   29.50R
CHINOOK          N/A     55  27  33 W18G31    29.35R
FORT BENTON      N/A     55  21  26 MISG      29.46S
$$

MTZ017>020-022>027-061-062-250400-
NORTHEAST MONTANA

CITY           SKY/WX    TMP DP  RH WIND       PRES   REMARKS
GLASGOW          N/A    N/A N/A N/A MISG      29.37R
JORDAN           N/A     61  16  17 NW17G30   29.41R
SIDNEY         LGT RAIN  55  53  93 SE8       29.39R
WOLF POINT     PTCLDY    64  17  16 NW18      29.35R
MALTA          CLEAR     57  21  24 W13       29.35R
PLENTYWOOD       N/A     59  52  77 S5        29.32R
$$

MTZ028>42-056>058-250400-
SOUTHCENTRAL AND SOUTHEAST MONTANA

CITY           SKY/WX    TMP DP  RH WIND       PRES   REMARKS
BAKER          CLOUDY    58  51  78 N31G43    29.41R
BILLINGS       CLOUDY    60  22  23 N14       29.45R
LIVINGSTON     CLEAR     55  16  21 NW21G28   29.53R
MILES CITY     CLOUDY    64  31  28 N7        29.38S
BIG TIMBER     CLEAR     55  16  21 W16G24    29.53R
EKALAKA          N/A     57  53  86 N24       29.39R
FORSYTH          N/A     66  28  24 NW3       29.38S
LAUREL           N/A     57  27  32 NW2       29.51R
ROUNDUP          N/A     58  18  21 NW8       29.44R
$$

REGIONAL REPORTS...DAKOTAS

CITY           SKY/WX    TMP DP  RH WIND       PRES   REMARKS
WILLISTON      RAIN      58  54  86 SW5       29.40R
MINOT          CLOUDY    65  39  38 SE13      29.38S
DICKINSON      LGT RAIN  62  38  40 SE13      29.32F
BEACH          RAIN      52  52 100 NW21G32   29.46R
TIOGA          LGT RAIN  55  55 100 NW10G18   29.38R
WATFORD CITY   CLOUDY    57  57 100 N9        29.37R
BISMARCK       CLOUDY    63  40  42 SE18      29.40F
GRAND FORKS    PTCLDY    60  42  51 SE16      29.60R
FARGO          PTCLDY    58  44  60 SE14      29.63S
BUFFALO SD       N/A     61  51  70 E13       29.24R
RAPID CITY     CLEAR     64  49  57 S12       29.31S
$$

REGIONAL REPORTS...WYOMING/IDAHO/WASHINGTON

CITY           SKY/WX    TMP DP  RH WIND       PRES   REMARKS
GILLETTE       CLEAR     61  50  67 N17G25    29.42R
SHERIDAN       CLEAR     57  41  55 W13       29.46R
BUFFALO WY     CLEAR     61  37  41 NW23G29   29.49R
CODY           CLEAR     55  31  39 N6        29.50R
YELLOWSTONE LA   N/A     48  16  27 VRB6      29.64R
IDAHO FALLS    CLEAR     61  17  18 SW17G28   29.54R
SALMON         CLEAR     54  23  30 N17G28    29.59R
BOISE          CLEAR     64  23  21 NW18G28   29.63R
SPOKANE        CLOUDY    56  32  40 N14       29.74R
$$

REGIONAL REPORTS...ALBERTA

CITY           SKY/WX    TMP DP  RH WIND       PRES   REMARKS
EDMONTON       CLOUDY    52  46  82 N13       29.50R
CALGARY        RAIN      45  41  87 NW24G38   29.48S
LETHBRIDGE     LGT RAIN  43  41  93 W32G44    29.43R FOG
MEDICINE HAT   CLOUDY    45  43  93 SW22G31   29.17F
WATERTON GATE    N/A     41  32  70 SW21G33     N/A
CARDSTON         N/A     41  37  87 W16G31      N/A
MILK RIVER       N/A     41  37  87 W37G47      N/A
ONEFOUR          N/A     45  36  70 W36G43      N/A
$$

REGIONAL REPORTS...SASKATCHEWAN

CITY           SKY/WX    TMP DP  RH WIND       PRES   REMARKS
SWIFT CURRENT  LGT RAIN  50  37  62 W20G31    29.23F
REGINA         MOCLDY    57  32  38 W5        29.26S
SASKATOON      LGT RAIN  48  43  81 S13       29.19R
CYPRESS HILLS    N/A     39  32  75 W20G30      N/A  WCI  30
ROCKGLEN         N/A     50  19  29 SW10        N/A
ASSINIBOIA       N/A     48  46  93 N30G39      N/A
$$




USA.gov is the U.S. government's official web portal to all federal, state and local government web resources and services.